{"data":{"norad_id":67573,"epoch":"2026-09-19T21:15:49.020192Z","epoch_age_seconds":125316,"freshness":"FRESH","line1":"1 67573U 26016N   26262.88598403  .00015768  00000+0  48929-3 0  9997","line2":"2 67573  97.2856 321.5137 0001305 282.7024  77.4073 15.33473882 36622","mean_motion":15.33473882,"eccentricity":0.0001305,"inclination_deg":97.2856,"raan_deg":321.5137,"arg_perigee_deg":282.7024,"mean_anomaly_deg":77.4073,"bstar":0.00048929,"rev_number":3662,"period_min":93.904435993518,"perigee_km":464.56415426633,"apogee_km":466.35033236384,"semimajor_km":6843.5942433151,"source":"CELESTRAK","updated_at":"2026-09-20T09:00:43.576511Z"}}